www.pogodaiklimat.ru

Погода и климат >> Архив погоды >> Китай >> Синьцзян-Уйгурский автономный район >> Чарклык


ПОГОДА в Чарклыке

  • Прогноз погоды в Чарклыке
  • Монитор погоды в Чарклыке

АРХИВ ПОГОДЫ в Чарклыке

Время (UTC), дата Ветер
(напр.,м/с)
 
Видим.   Явления Облачность Т
(С)
Тd
(С)
f
(%)
Тe
(С)
Тes
(С)
Комфортность P
(гПа)
Po
(гПа)
Тmin
(С)
Tmax
(С)
R
(мм)
R24
(мм)
S
(см)
09 12.07 В 2 16 км 9/9
[]
+31.3 +14.5 36 +33 +34 жарко 1002.5 907.3
12 12.07 В 1 19 км 3/3
[]
+30.6 +15.5 40 +33 +34 душно 1001.5 905.0
15 12.07 В 1 23 км н/о +21.1 +17.7 81 +25 +25 комфорт 1004.2 905.7
18 12.07 Ю 1 30 км ?/? +17.9 +15.7 87 +19 +19 1003.1 906.0 +31.9
21 12.07 штиль 0 26 км н/о +16.4 +14.8 90 +16 +16 1001.6 901.8
00 13.07 штиль 0 22 км ясно +16.4 +15.1 92 +16 +18 1001.6 904.7
03 13.07 СВ 2 20 км ясно +29.0 +14.8 42 +31 +43 жарко 1000.6 904.9
06 13.07 В 3 27 км ясно +34.8 +6.2 17 +33 +49 жарко 998.3 902.6 +14.7
09 13.07 СЗ 1 30 км ясно +38.2 +3.8 12 +35 +50 очень
жарко
995.3 902.8
15 13.07 В 2 30 км н/о +22.9 +12.5 52 +26 +26 жарко 996.0 898.9
18 13.07 ЮВ 1 30 км ?/? +20.9 +12.1 57 +24 +24 комфорт 994.9 900.0 +38.5
21 13.07 ЮВ 1 30 км н/о +16.8 +13.5 81 +18 +18 994.1 895.2
00 14.07 штиль 0 27 км ясно +18.0 +13.1 73 +18 +19 995.9 900.3
03 14.07 штиль 0 22 км ясно +30.7 +13.9 36 +32 +48 жарко 995.1 900.4
06 14.07 СВ 1 20 км ясно +37.2 +11.2 21 +36 +60 опасность
солнечного
удара
992.9 898.5 +16.8
09 14.07 З 1 25 км ясно +37.8 +6.7 15 +35 +50 очень
жарко
990.9 898.7
12 14.07 С 1 18 км ясно +32.5 +15.9 37 +35 +37 душно 990.9 895.6
15 14.07 В 2 12 км н/о +29.4 +7.9 26 +29 +29 жарко 990.9 896.2
18 14.07 В 4 30 км ?/? +30.4 +4.9 20 +29 +29 жарко 988.8 896.2 +39.8
21 14.07 С 1 30 км н/о +24.3 +9.1 38 +25 +25 комфорт 989.3 893.2
00 15.07 ЮЗ 1 14 км 9/9
[]
+21.5 +13.9 62 +24 +24 комфорт 993.6 898.6
03 15.07 штиль 0 2500 м пыль 10/10
[]
+28.9 +14.0 40 +31 +31 жарко 996.5 901.1
06 15.07 Ю 1 н/о пыль 10/10
[]
+31.6 +10.9 28 +32 +32 жарко 995.6 901.6 +21.2
09 15.07 С 2 6000 м пыль 10/10
[]
+32.3 +11.5 28 +32 +32 жарко 995.5 901.2
12 15.07 В 1 8000 м 10/10
[]
+28.3 +14.5 43 +31 +31 душно 997.9 901.8
15 15.07 Ю 1 12 км н/о +23.3 +17.7 71 +29 +29 душно 999.5 902.1
18 15.07 штиль 0 16 км ?/? +22.9 +15.5 63 +27 +27 душно 1000.1 904.5 +33.9
21 15.07 штиль 0 20 км н/о +21.1 +16.5 75 +25 +25 комфорт 1000.4 902.3
00 16.07 Ю 1 н/о слаб. дождь 10/10
[]
+21.8 +15.9 69 +25 +25 комфорт 1002.3 905.8 0.0
03 16.07 СВ 1 18 км {дождь} 9/9
[]
+24.8 +16.5 60 +28 +30 жарко 1003.0 905.8
06 16.07 В 1 29 км {дождь} 9/9
[]
+29.1 +13.7 39 +31 +33 жарко 1002.5 906.3 +20.7
09 16.07 З 2 11 км 9/9 1500 м
[]
+28.8 +13.5 39 +30 +32 жарко 1002.0 906.1
12 16.07 В 1 19 км 9/9 2000 м
[]
+27.0 +18.3 59 +32 +32 очень
душно
1001.9 905.3
15 16.07 штиль 0 19 км н/о +21.4 +18.2 82 +26 +26 душно 1004.6 906.1
18 16.07 ЮЗ 3 1900 м мгла ?/? +23.9 +11.6 46 +25 +25 комфорт 1004.4 908.2 +31.9 0.1
21 16.07 Ю 1 н/о дымка ?/? +18.4 +15.3 82 +20 +20 1005.3 905.8
00 17.07 Ю 1 9000 м 9/9
[]
+18.4 +15.8 85 +20 +20 1006.6 909.0
03 17.07 З 1 8000 м 9/9
[]
+27.9 +12.7 39 +29 +31 жарко 1006.6 910.0
06 17.07 штиль 0 8000 м 9/9
[]
+33.1 +12.2 28 +33 +36 жарко 1003.9 908.3 +17.1
09 17.07 С 1 17 км 9/9 1500 м
[]
+34.8 +11.3 24 +34 +36 очень
жарко
1002.5 908.3
12 17.07 В 3 20 км 9/9
[]
+31.5 +10.3 27 +31 +31 жарко 1002.8 906.3
15 17.07 ЮВ 1 21 км ?/? +22.7 +18.5 77 +28 +28 душно 1003.6 905.7
18 17.07 Ю 1 13 км ?/? +18.7 +15.2 80 +21 +21 комфорт 1003.5 907.2 +35.8
21 17.07 Ю 1 27 км н/о +15.9 +13.7 87 +17 +17 1003.0 902.9
00 18.07 штиль 0 28 км ясно +17.5 +15.1 86 +17 +19 1003.8 907.0
03 18.07 З 2 20 км ясно +28.2 +12.1 37 +29 +41 жарко 1004.0 907.7
06 18.07 В 3 30 км ясно +35.4 +5.8 16 +33 +50 жарко 1002.0 906.2 +15.4
09 18.07 СВ 1 30 км ясно +37.7 +6.7 15 +35 +50 очень
жарко
999.3 906.3
12 18.07 С 2 30 км ясно +35.1 +9.5 21 +34 +35 очень
жарко
998.3 902.6
15 18.07 В 2 30 км н/о +28.9 +5.7 23 +28 +28 жарко 999.7 904.0
18 18.07 В 4 2400 м мгла ?/? +27.2 +9.1 32 +27 +27 жарко 998.1 903.9 +38.8
21 18.07 штиль 0 7000 м дымка н/о +18.0 +13.5 75 +18 +18 999.2 900.2
00 19.07 ЮВ 1 н/о пыль ясно +18.8 +11.4 62 +21 +22 комфорт 1000.7 905.0
03 19.07 З 1 н/о пыль 9/9
[]
+27.8 +13.4 41 +30 +31 жарко 1000.2 904.2
06 19.07 В 3 30 км 1/1
[]
+37.3 +5.3 14 +35 +50 очень
жарко
996.7 902.9 +16.9

 

Местоположение метеостанции Чарклык (Синьцзян-Уйгурский автономный район, Китай): широта 39.03 долгота 88.17 высота над уровнем моря 889 м.

В архиве по умолчанию представлена погода в Чарклыке за последнюю неделю. Архивные данные за месяц целиком и за предыдущие месяцы, начиная с января 2011 года, Вы можете получить, выбрав интересующий диапазон дат из раскрывающегося списка и нажав кнопку "Ввод!".


*Определитесь, кто Вы:
робот инопланетянин человек

Внимание! Время в таблицах - всемирное. Для получения местного времени необходимо прибавить поправку, которая равна 8 ч.

Смотрите также архив погоды в соседних городах и на ближайших метеорологических станциях:

Погода в Тиканлике (Синьцзян-Уйгурский автономный район, Китай) (182 км)
Погода в Маннае (Цинхай, Китай) (248 км)
Погода в Корле (Синьцзян-Уйгурский автономный район, Китай) (348 км)
Погода в Тажонге (Синьцзян-Уйгурский автономный район, Китай) (389 км)
Погода в Балун Тай Кун (Синьцзян-Уйгурский автономный район, Китай) (433 км)
Погода в Турфане (Синьцзян-Уйгурский автономный район, Китай) (442 км)
Погода в Лэнху (Цинхай, Китай) (451 км)
Погода в Урумчи (Синьцзян-Уйгурский автономный район, Китай) (532 км)
Погода в Куче (Синьцзян-Уйгурский автономный район, Китай) (534 км)
Погода в Цзяньфане (Синьцзян-Уйгурский автономный район, Китай) (553 км)

Пояснения к столбцам:

Ветер - указаны скорость ветра в м/с - средняя за 10 мин, порывы в срок и между сроками (в фигурных скобках) и направление, откуда дует ветер: С - северный, СВ - северо-восточный, В - восточный, ЮВ - юго-восточный, Ю - южный, ЮЗ - юго-западный, З - западный, СЗ - северо-западный.
Видимость - горизонтальная дальность видимости в метрах или километрах. При видимости от 1 до 10 км при отсутствии осадков обычно наблюдается дымка, при ухудшении видимости до 1 км и менее - туман. В сухую погоду видимость может ухудшаться дымом, пылью или мглою.
Явления - указаны атмосферные явления, наблюдавшиеся в срок или в последний час перед сроком; фигурными скобками обозначены явления, наблюдавшиеся между сроками (за 1-3 часа до срока); квадратными скобками обозначены град или гололедные отложения с указанием их диаметра в мм.
Облачность - указаны через наклонную черту общая и нижняя облачность в баллах и высота нижней границы облаков в метрах; квадратными скобками обозначены формы облаков: Ci - перистые, Cs - перисто-слоистые, Cc - перисто-кучевые, Ac - высококучевые, As - высокослоистые, Sc - слоисто-кучевые, Ns - слоисто-дождевые, Cu - кучевые, Cb - кучево-дождевые. Подробнее классификацию облаков см. в Атласе облаков (PDF).
T - Температура воздуха - температура, измеренная на высоте 2 м над землей.
Td - Температура точки росы - температура, при понижении до которой содержащийся в воздухе водяной пар достигнет насыщения.
f - Относительная влажность воздуха - влажноcть воздуха, измеренная на высоте 2 м над землей.
Te - Эффективная температура - температура, которую ощущает одетый по сезону человек в тени. Характеристика душности погоды. При расчете учитывается влияние влажности воздуха и скорости ветра на теплоощущения человека.
Tes - Эффективная температура на солнце - температура, которую ощущает человек, с поправкой на солнечный нагрев. Характеристика знойности погоды. Зависит от высоты солнца над горизонтом, облачности и скорости ветра. Ночью, в пасмурную погоду, а также при ветре 12 м/с и более поправка равна нулю.
P - Атмосферное давление - приведенное к уровню моря атмосферное давление.
Po - Атмосферное давление - измеренное на уровне метеостанции атмосферное давление.
Tmin - Минимальная температура - минимум температуры воздуха на высоте 2 м над землей.
Tmax - Максимальная температура - максимум температуры воздуха на высоте 2 м над землей.
R - Количество осадков - Количество выпавших осадков за период времени, мм. При наведении курсора мыши на число - период времени, за который выпало указанное количество осадков.
R24 - Количество осадков - Количество выпавших осадков за 24 часа, мм.
S - Снежный покров - Высота снежного покрова, см. При наведении курсора мыши на число - состояние снежного покрова и степень покрытия местности в баллах.